ECMWFFLT1_500_spd_234.txt.gz
Wind_Speed
14 16 16 13 14 15 15 13 13 14 15 16 16 15 14 11 7 2 4 9 13 16 20 24 24 21 19 17 17 18 17 15 15 14 15 16 17 17 18 18 18 18 18 19 19 19 20 21 23 23 23 22 21 20 18 17 17 17 17 17 16 15 15
17 17 17 14 13 15 15 14 15 16 17 18 18 16 13 11 8 3 3 7 10 12 15 18 20 19 18 18 16 15 16 17 16 15 15 15 16 16 17 19 19 19 19 20 20 20 20 21 22 22 23 23 23 22 20 19 19 18 18 17 16 16 16
18 17 16 15 15 16 15 14 15 17 18 18 18 17 14 10 8 5 3 6 7 8 9 12 16 17 17 17 16 15 16 16 17 17 16 16 15 15 16 19 20 20 20 20 20 21 21 21 21 21 22 23 23 23 22 21 20 20 19 17 17 17 17
16 16 16 15 16 16 16 15 15 15 16 18 18 18 15 11 9 7 5 5 5 5 5 6 11 15 15 15 16 16 16 16 17 17 17 17 16 16 16 17 19 20 21 21 21 21 21 21 21 21 22 22 23 23 23 22 22 21 20 19 18 18 18
16 15 15 15 15 15 16 16 15 13 13 17 19 18 16 14 10 8 6 6 6 4 2 2 6 10 12 14 15 15 16 17 17 17 17 17 17 16 16 17 18 19 21 21 22 23 23 22 22 22 22 22 22 23 23 23 22 22 22 21 21 20 19
18 15 13 13 14 15 15 17 17 14 11 13 17 17 17 15 12 9 7 6 6 5 2 0 2 6 8 10 13 15 16 16 17 17 16 17 17 17 17 18 18 19 19 21 22 24 24 24 24 23 22 22 22 23 23 23 23 24 24 23 23 23 22
19 16 13 13 14 15 17 18 18 16 11 11 13 15 16 15 13 11 9 7 6 5 3 0 2 4 6 8 11 13 14 15 16 16 16 16 17 18 19 19 19 19 19 19 21 23 24 25 25 24 24 24 23 23 23 23 23 24 24 24 25 25 25
17 16 15 16 16 17 19 19 18 15 12 11 12 12 14 15 14 12 10 8 6 5 4 1 2 4 5 7 9 11 12 13 14 15 15 16 17 18 20 20 21 20 19 19 21 22 23 25 26 25 25 25 25 24 24 24 24 24 25 25 25 26 26
15 15 15 15 15 15 16 17 17 13 9 11 12 12 13 16 14 12 10 8 6 6 5 4 3 2 3 4 6 7 9 10 12 13 14 15 17 18 19 21 21 20 19 19 21 22 23 24 25 26 25 26 26 26 25 25 25 25 25 25 26 27 27
15 15 16 15 14 12 12 13 14 12 7 8 12 11 12 15 14 11 8 6 5 5 4 4 4 2 2 3 4 5 6 8 9 10 11 13 14 16 18 19 20 20 20 20 21 22 23 23 24 25 25 26 27 27 27 26 27 27 27 27 27 27 28
14 15 16 15 12 10 10 10 11 10 7 6 10 9 10 12 12 10 8 5 4 3 3 4 4 4 4 5 5 6 6 6 7 7 8 10 12 14 16 17 18 19 20 20 20 21 22 22 23 24 25 26 27 28 28 28 28 29 29 29 29 28 29
13 14 15 14 12 9 9 8 8 8 6 5 8 8 8 10 11 10 10 7 4 3 3 4 5 5 5 5 5 5 5 5 6 6 7 8 9 11 13 15 16 17 18 19 19 20 21 22 23 25 25 27 28 29 29 29 30 31 31 31 31 30 31
11 14 15 15 13 11 9 9 8 7 7 7 8 7 7 8 10 10 9 7 5 4 4 5 5 5 5 5 5 4 5 5 5 5 6 6 7 9 10 12 14 15 16 17 18 19 20 22 23 25 26 27 28 29 30 30 31 32 32 32 33 33 32
10 15 18 18 16 13 12 12 11 9 9 9 9 7 7 8 9 9 8 7 6 4 4 5 6 5 5 5 5 5 5 6 6 6 6 7 7 8 9 11 12 14 15 16 18 19 20 21 22 24 25 27 28 30 31 32 33 33 32 33 34 34 34
12 17 21 21 19 17 14 13 12 11 11 11 10 8 7 7 9 8 7 7 6 5 4 5 6 6 5 5 5 5 6 7 7 7 7 7 7 8 9 11 13 14 16 17 18 20 21 22 22 24 25 26 28 30 32 33 34 34 34 34 35 35 36
14 18 21 21 20 19 17 14 13 12 11 11 11 10 8 7 7 8 7 6 6 6 5 4 5 6 6 6 5 5 6 7 7 8 8 8 8 9 10 11 13 15 16 17 18 19 20 21 22 24 25 27 29 30 32 33 34 35 35 36 37 38 38
18 18 18 18 18 18 18 16 14 13 12 11 10 11 11 9 8 8 8 7 5 5 5 5 5 5 6 6 6 6 6 6 7 8 8 8 8 9 10 11 13 14 15 16 16 17 18 19 21 23 25 26 28 30 32 34 35 36 38 38 39 41 40
20 18 16 15 15 16 16 16 15 15 15 14 12 11 11 11 10 10 10 9 7 7 6 6 6 6 6 6 6 7 7 7 7 8 8 8 9 9 10 11 12 13 14 14 15 15 16 17 19 21 23 25 27 29 32 34 36 38 39 40 41 42 40
19 18 17 15 14 14 16 17 18 18 17 17 15 13 12 12 12 12 12 11 9 9 8 8 7 7 6 6 6 7 8 9 9 9 9 9 10 11 11 11 12 12 13 14 14 14 15 16 17 19 21 23 25 28 31 34 36 38 39 40 41 41 40
24 23 21 19 16 16 18 20 21 22 22 20 19 17 16 15 15 14 14 13 12 11 11 10 9 9 8 7 7 7 8 9 9 10 11 11 11 11 11 11 12 12 13 13 13 14 14 15 16 17 19 21 23 26 29 32 35 37 38 39 40 41 40
29 28 25 24 23 24 23 23 24 25 25 24 21 19 18 18 17 17 16 15 15 14 13 12 11 10 9 8 8 8 8 8 9 10 11 12 12 12 12 12 12 12 12 13 13 13 14 15 15 16 18 19 21 24 27 30 33 35 36 37 39 41 40
32 30 29 27 27 28 26 24 25 27 26 26 25 23 21 20 18 18 18 18 18 17 16 14 13 11 11 10 9 9 9 9 10 10 11 11 12 13 13 14 14 14 14 14 13 13 13 14 15 16 17 18 20 21 24 28 31 32 33 35 37 39 40
33 32 31 30 28 28 26 25 26 28 28 28 28 27 26 25 23 21 21 20 19 18 16 15 14 13 12 11 10 10 10 10 10 11 12 12 12 13 13 14 15 15 15 15 15 14 13 13 14 15 16 17 18 20 21 25 28 29 31 33 34 35 36
32 33 32 31 31 30 29 27 28 30 31 31 32 32 32 32 30 28 26 23 20 18 16 15 15 14 13 12 12 12 11 11 11 12 13 13 13 13 14 14 15 15 16 16 16 16 15 14 13 13 14 15 17 18 19 21 23 25 27 30 31 31 32
32 33 32 32 31 31 31 30 32 33 33 33 36 37 36 33 31 27 23 20 17 16 16 16 16 16 15 14 13 13 13 13 12 13 14 15 15 15 15 15 15 16 16 16 16 16 15 15 14 13 12 13 14 15 17 18 19 21 23 25 27 29 31
30 31 31 31 32 32 33 34 36 37 35 34 38 42 39 34 30 26 20 15 14 15 17 17 18 17 16 16 15 15 15 15 15 15 15 16 16 16 16 16 16 16 16 16 16 16 15 14 14 13 12 11 12 13 14 15 16 17 19 21 23 26 30
28 28 29 30 30 31 33 35 37 38 36 37 42 46 43 36 30 28 25 21 17 17 18 19 19 19 19 18 17 17 16 16 16 16 16 17 17 18 18 17 17 16 16 16 16 16 15 14 13 13 12 11 11 11 11 12 13 13 14 16 19 22 25
29 29 29 29 30 31 32 35 37 38 39 42 45 47 44 35 27 25 26 25 23 22 21 20 21 21 22 21 20 19 18 18 18 18 18 18 18 19 19 19 18 18 16 16 16 15 15 15 13 12 12 11 11 10 9 9 9 10 12 13 16 18 20
32 31 31 31 30 30 31 33 36 38 41 45 47 46 41 33 27 25 25 26 27 27 26 24 24 24 24 24 22 22 21 20 20 20 20 20 19 19 19 19 19 19 18 17 16 15 15 15 14 13 11 11 10 10 9 8 7 8 9 11 14 17 20
35 33 32 32 31 32 33 34 37 39 42 45 48 47 41 35 31 30 29 29 29 28 28 27 26 27 27 25 23 23 24 23 23 23 23 23 21 20 19 19 19 19 18 18 17 16 15 15 14 13 12 11 10 9 8 7 7 7 7 9 12 14 16
34 33 33 33 33 34 35 36 39 41 43 45 47 46 41 37 35 33 33 32 30 28 28 27 26 27 29 28 26 26 27 28 27 26 26 25 24 22 20 19 19 19 18 18 18 17 16 15 14 14 13 11 10 9 8 7 6 6 6 6 8 9 10
34 34 34 34 35 36 37 37 39 42 44 45 45 43 40 39 37 35 35 36 34 33 32 31 28 27 28 30 31 30 30 32 32 30 29 29 27 25 22 20 20 19 18 18 18 18 17 16 14 13 13 12 10 9 8 7 6 5 5 4 4 6 8
36 36 36 36 35 36 37 38 39 41 43 44 43 41 38 38 37 36 36 36 36 36 35 32 30 29 29 31 32 33 34 35 34 32 31 29 26 24 23 21 20 20 19 19 19 19 18 17 15 13 12 12 11 10 9 8 7 6 5 4 4 4 5
38 37 38 38 37 37 37 38 39 40 42 43 43 39 36 36 37 36 35 35 35 36 35 32 30 31 32 32 32 34 35 35 33 31 30 26 22 21 22 22 22 21 21 20 20 20 19 19 17 15 13 12 12 11 10 9 8 7 6 5 5 4 4
40 38 38 39 39 37 36 36 38 40 41 43 43 40 36 35 36 36 35 34 34 34 34 34 32 33 35 36 37 37 35 34 33 31 28 24 22 21 22 23 23 23 22 22 21 21 20 20 19 17 15 13 12 11 10 9 9 8 7 6 6 5 5
40 40 39 39 39 38 36 36 37 38 40 42 43 41 38 35 35 36 35 35 34 33 34 36 36 36 39 40 40 38 36 33 32 31 28 26 25 24 24 24 24 24 23 23 22 21 21 21 20 19 17 16 14 12 11 10 10 9 8 8 7 6 6
38 39 39 39 38 38 37 36 37 38 40 41 43 42 39 36 36 36 36 35 34 34 35 37 38 41 43 40 36 35 34 33 31 30 28 28 28 28 27 26 25 25 25 24 23 22 21 20 20 20 19 18 17 15 13 12 11 10 9 9 8 8 7
37 37 38 38 38 38 37 37 37 38 39 41 42 42 40 38 36 36 37 36 35 35 35 37 40 44 44 39 34 33 34 34 33 31 29 29 31 31 29 27 26 26 26 25 25 24 22 20 20 20 20 19 19 18 16 15 13 12 11 10 10 9 9

ECMWFFLT1_500_spd_240.txt.gz
Wind_Speed
11 12 12 12 12 12 12 13 12 11 13 14 15 16 16 16 17 17 17 15 15 14 12 11 10 10 11 12 13 14 16 17 17 16 17 20 23 24 23 21 20 20 20 21 21 21 20 20 21 22 22 21 22 22 22 22 21 20 20 19 19 18 17
13 13 13 13 12 11 11 12 11 12 14 15 16 15 14 14 15 17 17 16 14 13 12 11 11 10 10 12 14 15 17 18 19 19 18 19 22 24 23 22 21 21 21 21 22 22 21 21 22 22 22 22 22 22 23 23 22 22 21 21 20 20 19
14 13 12 12 13 12 12 11 12 13 15 17 16 13 11 12 14 16 18 16 14 13 12 12 11 11 11 12 14 17 19 21 21 21 20 20 22 23 23 22 22 22 22 22 22 22 22 23 23 23 23 23 23 23 23 24 24 23 23 22 22 21 21
15 13 12 12 14 15 15 14 14 14 15 18 16 10 8 11 13 16 18 17 15 13 11 11 11 11 11 12 13 15 18 21 21 20 21 21 22 23 22 22 22 23 24 24 23 23 23 24 24 24 24 24 24 24 24 24 25 25 24 24 23 23 23
17 15 14 13 14 15 17 16 15 14 15 18 15 7 7 10 12 15 17 17 15 14 12 11 11 11 10 11 11 11 15 19 20 19 20 21 22 22 23 23 23 24 25 25 24 24 24 24 24 25 25 26 25 25 25 25 25 25 25 25 25 25 25
18 18 16 14 12 13 17 18 16 14 15 17 13 6 6 10 12 13 15 15 15 14 12 11 11 11 10 9 8 8 11 16 18 19 20 20 21 22 23 23 24 25 26 25 25 25 25 25 24 24 25 26 26 26 26 26 26 26 26 26 26 26 26
19 18 17 14 11 12 15 17 16 14 14 15 11 6 7 10 11 12 13 13 13 13 12 11 11 10 9 8 7 6 10 14 17 18 19 19 20 21 23 24 26 26 24 24 25 27 27 27 27 26 25 26 26 27 27 27 26 27 27 27 27 27 27
18 18 17 14 11 12 14 16 15 14 14 14 11 8 8 10 11 12 12 12 12 12 11 10 10 10 9 7 6 6 8 12 15 17 18 18 19 20 23 26 26 24 22 23 26 28 28 28 27 26 27 27 28 27 27 28 27 27 27 27 28 28 28
19 18 18 15 11 12 14 15 14 15 15 15 13 11 10 10 11 12 12 11 12 12 10 10 10 10 9 8 6 6 6 8 12 15 16 18 19 20 24 26 24 23 24 26 27 28 28 27 27 28 29 29 28 27 27 27 27 27 27 27 28 29 29
23 21 19 16 12 12 14 14 14 14 15 16 15 14 13 13 12 13 13 11 11 11 10 9 9 10 10 8 7 6 6 7 9 12 14 16 18 20 24 25 22 22 25 26 26 26 26 27 28 30 30 30 30 29 28 28 28 28 27 27 28 29 30
27 27 22 18 14 13 14 15 15 15 15 16 17 16 15 14 14 14 14 13 10 9 8 7 7 8 9 9 8 7 6 6 8 10 12 14 16 18 23 23 20 20 23 23 24 25 26 28 29 30 30 30 31 30 30 30 30 30 29 29 29 30 31
29 28 22 18 15 14 15 17 16 15 15 16 17 17 17 16 15 15 15 15 12 9 8 6 6 7 7 8 8 8 8 7 8 9 11 13 14 17 21 21 17 18 21 22 21 23 26 28 29 29 30 31 30 30 30 30 31 31 31 31 31 31 32
29 24 19 17 15 15 16 17 17 16 16 16 17 19 19 19 18 17 17 17 15 13 10 8 6 6 7 7 8 9 9 9 10 10 11 13 14 16 19 18 14 16 20 20 21 22 24 26 27 28 29 30 29 29 29 30 30 31 32 33 33 33 34
27 22 19 19 18 17 18 17 17 17 17 18 19 20 22 23 22 20 19 18 18 17 16 13 11 8 7 8 8 9 9 10 11 12 13 14 14 15 17 16 14 14 16 18 19 21 22 24 24 25 26 27 28 29 29 30 31 32 33 34 35 36 37
26 23 22 24 23 22 21 21 20 19 19 20 21 22 23 24 24 23 21 20 21 22 20 18 15 13 11 9 9 9 10 11 12 13 14 15 15 16 17 16 14 13 13 16 17 19 20 21 22 23 24 25 26 28 29 30 31 32 33 35 37 39 39
28 27 26 27 28 28 27 26 24 23 22 22 23 24 24 25 24 24 22 21 22 22 22 18 15 15 15 13 11 10 11 12 13 13 14 15 16 17 17 18 16 14 13 15 17 18 18 20 21 22 23 25 26 26 28 29 31 32 33 36 39 39 36
32 32 30 30 30 30 30 28 26 25 24 23 24 25 26 26 26 24 22 22 22 21 20 17 13 12 15 16 14 12 12 12 13 14 14 15 16 17 17 18 18 16 16 16 18 19 19 20 21 22 23 24 25 26 27 29 31 32 33 36 37 36 33
34 34 33 32 31 31 31 30 28 27 26 24 24 26 27 29 28 26 23 22 22 22 19 17 15 13 15 17 17 15 14 13 14 14 14 15 15 16 17 17 18 18 17 17 18 19 20 21 22 22 23 24 25 27 28 30 32 33 34 35 36 34 34
34 34 34 33 33 32 32 31 30 29 28 27 25 26 27 29 30 28 25 23 24 24 22 21 20 18 17 18 19 18 16 16 15 16 16 16 16 16 17 18 18 18 18 17 17 18 19 20 21 22 23 24 25 26 28 30 32 33 34 35 36 35 35
33 33 33 33 33 32 32 32 31 31 31 29 28 27 28 30 31 29 26 25 27 27 25 23 24 24 23 21 20 20 19 18 18 17 17 17 17 17 18 18 19 19 19 18 18 18 18 19 19 20 21 22 24 25 26 28 30 32 33 34 35 35 35
32 32 32 31 32 33 33 33 33 33 33 32 31 31 31 33 35 33 29 28 29 29 28 27 27 29 29 27 24 23 21 20 19 19 19 19 19 19 19 19 19 20 20 20 20 19 19 19 19 19 20 20 22 23 25 27 29 30 31 32 33 34 34
33 33 33 33 34 34 35 35 35 35 36 36 35 35 36 36 37 37 34 32 32 32 32 31 31 31 31 30 29 27 25 24 22 21 20 20 20 20 19 19 20 20 20 20 21 20 20 20 19 19 20 20 21 22 23 26 27 29 30 31 32 33 34
34 35 37 38 38 37 37 37 37 38 39 39 39 38 38 38 38 39 38 35 34 34 34 33 33 31 31 31 31 31 30 29 27 25 23 22 21 21 20 20 21 21 21 20 21 21 21 20 20 20 20 21 22 22 23 25 27 28 30 31 32 33 33
35 36 36 37 39 40 39 39 39 39 39 39 39 38 38 38 38 40 39 36 36 36 35 34 33 31 30 31 32 33 33 32 30 28 26 24 23 22 22 21 22 22 21 21 21 21 21 21 20 21 21 22 23 23 23 25 27 28 29 30 31 32 32
37 36 36 37 38 40 40 39 38 38 38 39 38 37 37 37 38 39 39 38 37 37 36 35 35 34 33 33 32 32 34 34 32 29 27 26 25 25 24 23 23 23 22 22 22 22 22 22 22 21 21 22 23 23 24 25 27 28 28 29 30 30 31
43 41 41 42 42 42 42 41 40 39 37 37 38 37 36 35 37 38 39 38 38 39 38 36 36 36 35 35 34 33 32 32 30 28 27 27 27 28 27 26 25 24 23 23 22 22 23 23 23 22 22 22 22 23 24 25 26 27 28 28 29 29 29
44 44 43 43 43 43 43 42 41 41 39 38 38 38 35 33 34 35 36 35 36 38 38 36 34 34 35 36 35 34 33 31 29 29 29 29 29 30 30 29 28 26 25 24 23 23 23 23 23 23 23 23 22 22 23 24 24 25 27 27 27 27 27
45 44 44 43 44 44 44 43 42 42 41 40 40 40 38 35 34 34 34 34 33 35 36 35 34 34 35 35 35 34 33 30 29 31 32 32 32 31 31 30 30 29 27 26 25 24 24 24 23 23 24 24 24 23 23 23 23 24 25 26 26 26 26
46 46 45 44 44 45 45 45 44 43 42 42 41 40 38 36 36 36 35 34 33 34 36 37 35 33 33 34 33 33 32 29 29 31 32 32 33 33 33 31 30 30 30 30 28 27 26 25 24 23 24 25 25 24 24 23 23 23 24 24 25 25 25
48 48 48 47 46 46 46 46 45 44 44 43 42 41 38 36 36 37 37 36 35 35 37 38 37 34 33 32 32 32 31 30 30 33 34 33 32 32 33 34 33 32 31 32 31 29 28 27 26 25 25 25 26 26 25 24 24 24 24 23 24 24 23
49 50 50 49 49 48 47 47 47 46 46 45 44 42 39 36 36 38 39 39 37 36 37 39 38 37 36 34 32 31 32 32 33 35 37 36 33 30 30 34 36 35 33 32 31 30 29 28 27 26 26 27 27 28 27 26 26 25 25 24 24 23 22
51 51 51 51 50 50 49 48 48 48 47 46 45 43 41 38 37 37 39 40 39 39 39 39 40 39 39 36 34 32 33 34 35 36 37 37 36 32 29 30 34 37 36 34 33 32 30 29 28 28 28 28 28 29 29 28 27 26 26 25 24 23 22
51 52 52 52 51 51 50 49 49 49 48 48 46 45 43 40 38 38 39 40 40 39 39 40 41 41 41 40 37 35 34 35 35 36 37 37 37 36 33 31 32 34 36 36 36 34 32 31 30 30 30 30 29 29 29 29 28 27 27 26 24 23 22
48 49 50 51 52 51 51 50 50 50 49 49 47 46 44 42 40 40 40 41 40 39 39 40 41 42 42 41 39 37 36 35 36 36 37 36 37 36 35 34 33 33 34 36 38 37 35 34 33 33 33 33 31 30 30 29 29 28 27 27 26 24 23
42 43 46 47 49 50 50 50 50 50 50 49 48 47 45 43 41 41 41 42 42 41 40 41 42 42 42 41 40 37 36 36 37 37 36 36 36 36 35 35 34 33 32 34 37 39 38 36 34 34 34 34 34 32 30 30 29 28 27 27 27 25 23
35 37 39 42 44 46 47 48 49 49 49 49 48 47 46 44 42 41 41 42 43 43 42 41 42 43 43 41 40 38 37 36 38 39 37 35 35 36 36 35 34 33 32 33 35 38 38 36 33 32 32 34 35 34 32 31 30 28 27 27 27 26 25
33 34 35 37 39 41 42 44 45 46 47 48 48 47 46 45 43 41 41 42 43 43 43 42 43 44 43 42 40 39 37 37 38 39 38 35 35 36 36 35 35 34 33 33 34 36 36 34 32 32 32 32 34 35 34 32 31 29 28 28 28 27 26
33 34 34 35 36 37 38 39 41 42 43 45 46 46 45 45 44 43 42 42 43 43 43 43 43 44 43 42 40 39 38 36 37 39 39 36 35 35 35 35 35 34 33 33 34 35 35 33 32 32 33 33 33 34 34 34 32 30 29 28 28 28 27

ECMWFFLT1_500_spd_246.txt.gz
Wind_Speed
13 14 15 16 15 14 15 16 17 17 17 17 18 19 19 21 23 21 17 16 18 21 22 24 24 24 22 20 20 19 17 16 17 19 21 22 23 23 22 22 22 22 23 22 20 19 18 19 19 18 19 20 20 20 20 20 20 20 20 20 20 19 18
14 15 17 18 17 17 16 17 18 19 18 18 18 19 19 21 20 16 13 15 18 21 22 23 23 22 19 15 16 17 17 17 18 19 21 23 24 24 24 23 21 21 23 23 20 18 18 19 19 18 19 21 21 20 20 20 20 20 20 20 20 20 20
15 16 18 19 19 19 18 18 19 20 19 18 18 18 18 18 16 13 13 15 18 19 20 20 21 20 17 14 16 17 18 18 18 19 22 24 25 25 25 24 22 22 23 25 22 19 19 20 19 19 20 22 22 22 20 20 20 20 20 20 20 21 21
16 17 20 21 21 21 21 21 21 21 20 19 18 17 16 15 14 12 12 15 16 17 18 19 19 19 17 16 16 16 16 16 17 17 19 21 23 25 24 24 25 24 23 23 24 23 21 20 20 20 22 23 24 24 22 22 21 21 21 21 21 21 22
19 18 20 22 23 24 24 24 24 24 22 20 19 18 16 15 13 12 12 13 15 16 17 17 18 19 19 17 16 15 15 15 15 14 14 17 20 22 23 24 26 25 23 24 26 26 25 23 20 20 23 24 24 25 25 24 23 22 22 22 22 22 23
22 21 20 22 25 26 27 27 27 27 25 22 20 18 17 16 15 14 13 14 15 15 15 16 17 19 20 19 18 17 16 15 14 13 13 15 16 19 23 25 26 25 25 26 26 26 25 23 22 20 23 25 24 24 25 25 25 24 24 24 23 23 23
25 24 23 23 26 28 29 29 28 28 26 23 21 20 19 18 17 16 14 14 15 15 14 14 16 17 18 19 20 19 18 17 17 17 17 16 15 16 20 23 24 23 24 25 25 25 24 24 23 20 21 24 24 23 24 25 25 26 25 25 25 24 24
28 28 27 26 27 29 30 31 29 28 26 24 22 21 20 19 19 18 16 15 15 16 16 15 15 15 15 16 17 18 18 17 17 18 18 17 16 15 15 19 24 24 23 23 22 23 23 25 26 23 21 23 24 24 24 24 25 25 25 25 25 25 25
30 30 30 29 29 30 32 32 30 28 26 24 23 22 22 21 20 20 19 17 16 16 17 17 16 16 15 14 15 16 16 15 14 15 17 16 15 14 12 13 19 23 22 22 22 22 23 25 27 26 25 24 24 24 25 25 25 25 25 25 25 25 25
33 32 32 31 31 31 33 33 31 29 27 25 24 23 23 22 22 22 21 19 18 16 17 18 18 18 18 17 17 16 15 15 15 16 17 17 16 14 12 9 11 16 20 21 21 22 22 24 25 26 26 26 25 26 26 25 25 25 25 25 26 26 26
34 34 33 33 32 33 34 33 31 30 28 26 25 24 24 24 24 24 23 21 19 18 17 18 19 20 21 20 20 18 15 15 17 19 20 19 16 13 10 8 8 9 13 18 21 22 22 23 25 25 26 26 27 27 27 26 25 24 24 25 25 26 26
36 36 35 35 35 35 35 34 32 32 30 28 26 25 25 25 25 26 26 25 24 21 20 19 19 20 22 22 22 19 15 15 17 20 21 19 17 14 11 9 10 10 9 12 17 21 22 23 24 24 24 25 26 27 26 25 24 24 24 25 25 26 27
37 37 37 37 37 38 38 37 36 35 33 30 29 27 27 26 27 28 28 29 29 27 24 22 21 21 22 22 21 18 16 15 15 17 19 18 17 16 14 12 12 13 11 9 11 15 19 21 23 23 23 24 25 24 24 23 24 25 26 26 27 27 28
38 38 38 38 38 39 39 39 39 38 37 34 32 30 29 29 30 30 30 30 30 30 27 25 24 24 23 23 21 18 16 14 13 15 17 17 17 17 17 16 14 12 11 9 8 9 13 16 20 22 23 23 22 22 23 24 26 26 27 28 28 29 30
38 39 39 39 39 39 39 39 39 40 39 38 36 34 32 31 32 32 32 31 31 30 29 27 26 25 25 24 22 20 19 16 14 16 17 16 16 16 17 17 16 13 10 9 8 7 8 11 14 17 20 21 21 21 23 24 25 26 27 28 29 29 30
38 38 39 39 39 39 39 39 39 40 39 38 38 38 35 34 33 33 33 32 32 31 30 29 28 27 27 27 25 22 21 18 17 17 17 16 15 14 14 15 16 15 13 11 10 9 9 10 12 13 15 17 18 20 22 22 23 24 26 27 28 29 29
38 38 39 39 39 39 40 40 40 40 39 37 37 39 39 37 36 35 35 34 33 32 31 31 30 28 28 29 28 26 23 20 19 18 19 18 17 15 13 13 13 13 13 12 12 12 12 12 13 13 13 14 15 18 19 19 20 22 23 24 25 26 27
39 40 40 39 40 40 41 42 42 41 39 36 35 38 40 39 38 37 37 36 35 34 32 31 30 29 29 29 30 30 28 24 22 21 21 21 20 18 16 15 14 13 13 13 13 14 14 15 15 15 15 15 16 16 17 17 18 19 21 22 22 23 24
40 41 41 41 41 41 40 40 39 40 39 36 34 36 39 40 39 38 38 38 37 36 34 33 32 31 30 30 31 32 32 29 26 24 23 24 23 22 20 18 16 15 14 14 14 15 16 16 16 17 16 16 17 17 18 18 19 19 20 21 21 22 22
40 40 41 41 41 39 38 37 36 36 35 33 33 36 37 37 37 37 38 39 39 38 37 35 34 32 32 32 32 32 33 33 31 29 27 26 25 25 24 22 20 18 17 16 16 16 16 17 17 17 17 17 17 18 18 19 19 19 20 21 22 22 22
39 39 39 39 39 38 38 37 34 33 32 32 34 37 37 36 35 35 38 40 41 40 38 37 36 35 34 33 33 34 34 35 35 34 31 29 26 25 25 23 22 21 20 19 18 18 18 18 18 18 18 18 18 18 18 19 18 18 19 21 22 22 22
38 38 38 39 39 40 40 39 37 36 35 36 38 38 38 37 36 36 38 41 42 42 42 40 39 38 36 34 34 35 36 37 37 37 34 31 28 26 25 24 24 24 23 22 21 20 19 19 19 19 19 19 20 19 20 20 19 19 19 20 21 21 22
39 40 41 41 42 42 42 42 41 40 40 40 41 41 40 40 40 40 42 43 43 44 45 45 44 41 39 37 36 36 37 38 38 38 36 34 31 30 29 28 26 25 25 25 24 22 21 20 20 21 21 21 21 20 21 21 21 20 20 21 21 21 22
38 40 42 42 43 43 43 43 42 42 42 42 42 43 43 43 44 44 45 45 45 46 47 48 47 45 44 42 39 38 38 39 39 39 37 35 33 31 31 31 29 28 27 28 27 26 23 22 21 22 22 23 22 22 21 22 21 21 21 21 21 21 22
39 40 41 41 42 43 42 43 43 43 44 44 43 44 45 46 47 47 47 47 48 49 49 48 47 45 44 44 42 40 39 39 40 40 37 35 33 31 30 30 31 31 30 30 30 29 27 25 24 24 23 24 23 23 23 23 22 21 21 21 21 21 21
41 42 42 42 43 43 42 42 42 43 43 44 44 45 46 47 48 49 49 49 50 51 50 49 48 46 45 45 44 43 41 40 40 40 38 36 34 31 30 31 31 31 31 31 30 30 30 28 27 27 26 26 25 24 25 25 24 23 22 22 21 21 21
43 43 43 43 43 43 42 42 42 42 42 42 42 43 44 46 47 48 49 49 50 51 51 51 51 50 48 47 46 46 44 42 40 40 39 37 34 32 31 32 32 32 32 31 31 31 31 31 31 30 29 29 28 26 26 26 25 25 24 23 23 22 22
41 42 42 42 42 42 42 41 41 41 41 42 42 42 43 44 45 46 48 48 50 50 51 51 52 51 50 49 47 47 47 44 42 41 41 39 36 33 31 31 32 33 33 32 31 31 32 33 33 33 32 31 31 29 28 27 27 26 25 25 24 24 23
38 38 39 40 41 41 42 42 41 41 42 42 43 43 43 44 45 46 47 48 49 50 50 51 52 51 50 49 47 47 47 46 44 43 43 42 39 35 32 31 32 33 34 34 32 31 33 35 35 35 33 32 32 32 31 30 29 27 27 27 26 25 25
37 38 39 39 41 41 42 42 42 42 42 43 43 43 43 44 44 44 45 47 48 50 50 51 52 52 51 50 48 47 47 47 45 43 44 45 42 39 36 34 33 33 34 35 34 33 34 35 35 35 33 32 32 33 33 33 31 30 29 28 28 28 27
38 39 40 41 42 42 43 43 43 43 42 42 43 43 44 44 45 44 44 44 46 48 49 49 51 52 53 51 49 48 47 48 46 43 44 46 45 42 39 37 35 34 34 35 36 35 34 34 34 33 32 33 34 34 34 34 34 33 33 31 30 29 29
39 40 41 42 42 43 43 42 42 41 41 40 40 41 42 42 42 42 42 42 43 44 46 47 48 51 52 52 51 48 47 48 47 45 44 45 46 44 41 39 37 36 34 35 37 36 35 35 36 34 33 34 35 34 34 34 35 35 36 34 32 31 31
39 40 40 41 41 41 41 41 40 39 39 38 39 39 40 39 39 39 38 38 39 40 42 44 45 47 50 52 51 50 48 48 48 46 44 44 45 45 42 40 38 37 36 36 37 37 36 36 37 37 37 37 36 35 35 35 34 35 36 37 36 33 32
39 39 39 39 39 39 39 39 39 39 39 39 39 39 39 39 39 38 38 38 38 38 39 40 41 43 46 49 50 50 48 47 48 48 46 45 45 45 43 41 39 38 37 37 38 37 36 36 36 37 39 39 37 36 36 36 35 34 35 37 38 37 36
38 38 37 37 37 38 39 39 39 39 39 39 39 38 38 37 37 38 38 39 39 39 39 38 39 40 43 46 48 49 48 47 47 48 47 46 45 45 44 42 41 40 39 38 39 38 37 37 36 36 37 38 38 37 36 36 36 35 35 36 37 39 39
35 35 35 35 36 36 37 37 36 36 36 36 36 36 35 34 35 36 37 38 38 39 39 38 37 38 39 42 45 47 47 47 47 47 47 46 46 45 44 43 42 41 40 40 40 40 39 38 37 37 37 37 37 37 37 36 36 36 37 37 37 38 40
33 32 33 33 33 33 33 33 33 33 33 34 34 34 33 33 33 34 35 36 37 37 37 36 36 36 36 38 41 44 46 46 46 46 46 46 46 45 44 44 43 41 40 40 40 40 40 39 38 38 38 37 37 37 37 37 37 37 37 38 37 38 38
32 31 31 31 31 31 31 33 33 34 34 34 34 34 33 33 33 33 34 35 35 35 35 35 35 34 34 35 37 40 43 44 44 45 46 46 45 45 44 44 43 41 40 40 40 40 39 38 37 38 38 37 37 37 37 37 38 38 37 37 37 38 38

ECMWFFLT1_500_spd_252.txt.gz
Wind_Speed
9 10 12 15 16 16 13 11 13 18 19 19 18 18 19 21 21 22 22 23 23 23 22 22 22 23 22 21 20 19 19 19 19 18 18 18 18 16 14 13 12 11 12 15 18 18 18 17 17 19 19 19 21 21 22 23 23 24 25 25 25 23 21
7 9 13 13 13 15 17 16 16 18 17 16 16 17 19 21 21 20 20 21 21 21 22 22 21 21 21 22 22 21 19 19 19 20 19 18 18 17 16 13 11 10 11 15 18 19 19 18 17 17 18 19 21 22 22 23 24 26 27 26 27 26 23
10 12 14 15 16 18 18 17 17 18 18 17 18 19 19 20 20 19 20 21 21 21 22 22 21 20 21 23 23 22 22 21 20 20 19 18 16 16 15 14 12 10 10 13 16 19 20 20 18 16 17 18 21 22 22 23 25 27 28 28 28 28 24
15 14 16 18 20 22 21 19 18 18 19 19 19 19 18 19 19 18 18 19 20 21 21 22 22 21 22 24 25 24 24 23 22 20 20 18 16 14 14 13 13 11 10 10 13 17 20 22 21 18 16 17 19 21 22 23 24 27 29 29 30 29 25
17 15 16 18 18 21 23 23 21 17 16 19 18 17 17 17 18 17 16 16 17 19 19 19 20 21 23 24 25 25 24 25 24 22 20 19 18 16 15 14 13 12 10 9 11 15 19 22 22 20 18 18 18 20 22 23 23 25 28 30 30 29 27
19 18 19 18 18 22 24 24 23 18 16 19 20 18 17 17 17 16 15 14 14 15 17 17 18 19 21 23 24 25 24 24 24 23 21 20 19 18 17 14 13 12 10 8 9 13 17 21 22 21 20 20 20 20 21 22 22 23 27 30 31 30 28
22 21 21 21 22 24 24 24 24 20 16 18 20 20 19 19 19 17 15 14 14 13 14 16 17 19 20 21 23 23 23 22 22 22 22 21 19 18 18 16 13 12 11 9 8 9 14 18 20 21 22 22 22 23 23 22 22 23 25 28 31 30 28
25 25 23 24 24 24 25 24 21 18 17 19 20 20 19 20 21 19 17 15 15 14 14 14 16 18 19 19 20 22 22 21 20 20 20 21 20 17 16 16 14 13 12 11 9 8 10 15 18 20 21 21 22 23 23 22 21 21 23 26 28 29 28
27 27 26 26 26 27 26 23 18 17 19 22 22 21 21 22 22 21 20 17 17 17 16 16 16 17 18 19 20 20 21 21 20 18 17 18 19 18 16 15 15 14 13 12 11 10 8 12 16 18 19 21 23 24 24 22 21 20 21 24 27 29 30
28 29 28 26 28 30 27 22 20 22 23 25 25 24 24 24 23 23 22 20 19 18 18 18 17 17 18 19 21 22 22 21 20 19 17 16 17 18 17 15 14 14 13 12 11 10 9 9 12 16 17 19 22 24 25 24 23 22 22 23 26 29 30
28 30 30 28 29 30 27 24 26 27 27 28 28 28 27 27 25 25 24 23 21 20 20 19 19 18 18 19 21 23 24 22 20 20 20 18 17 17 18 17 15 14 12 10 10 10 10 8 8 12 15 17 18 20 22 24 24 24 24 25 26 27 30
29 31 32 31 29 29 29 29 30 29 29 30 30 30 30 30 28 27 27 25 23 22 21 21 20 20 19 20 21 24 26 23 19 21 22 21 20 19 19 20 19 17 14 11 8 7 8 8 7 9 12 16 18 19 21 24 24 25 26 26 25 25 30
29 31 33 34 34 33 32 31 31 31 31 31 31 31 32 32 31 30 29 28 26 24 23 23 23 22 22 22 22 23 26 23 20 20 23 23 22 21 20 21 22 22 19 16 11 8 8 8 7 7 9 11 15 19 22 24 25 26 27 27 25 25 29
28 29 30 33 34 34 34 33 33 33 33 33 34 33 33 33 33 32 31 30 29 26 25 24 24 24 25 25 24 24 25 24 22 22 23 25 24 21 20 22 23 22 22 21 18 13 11 10 8 8 7 8 11 15 20 23 24 25 26 26 25 24 27
29 29 30 32 34 34 35 35 35 34 34 35 36 35 35 35 35 34 33 32 32 31 30 28 27 27 27 27 27 25 24 23 23 23 24 26 26 23 22 24 23 21 21 22 21 18 15 12 10 9 8 8 9 11 15 20 23 25 25 26 26 26 28
32 32 33 34 35 36 36 37 37 37 37 37 37 37 38 37 36 35 34 34 35 35 34 32 30 28 27 27 28 27 25 24 24 25 25 26 27 25 24 25 24 23 24 22 20 18 18 16 14 12 10 10 10 10 12 16 21 24 25 25 26 28 29
35 35 35 35 36 37 37 38 38 38 38 39 39 39 39 38 38 37 37 37 36 36 36 35 32 30 27 26 26 25 26 25 25 25 25 26 27 26 26 25 24 25 27 24 20 20 21 20 18 16 15 13 12 11 11 14 18 22 24 24 24 26 27
36 35 35 36 36 36 37 37 38 38 38 39 40 39 39 39 39 39 39 39 38 38 38 38 37 35 31 28 26 25 26 25 24 25 24 25 26 26 26 26 24 25 27 26 25 24 24 23 22 21 20 17 15 13 13 14 16 19 22 23 23 24 25
36 35 35 35 36 36 36 37 38 38 38 39 40 40 40 40 40 41 41 41 41 41 41 41 41 40 38 35 32 30 28 26 25 25 24 24 25 26 26 26 25 26 26 26 27 27 25 23 22 21 22 22 20 17 16 16 16 17 19 20 22 23 24
35 34 34 36 37 37 37 38 39 39 39 40 41 42 42 42 42 42 43 43 43 43 43 43 43 43 43 41 38 35 32 29 27 27 27 27 27 27 27 27 27 27 27 27 28 27 26 24 22 20 22 23 22 20 18 18 19 18 18 19 19 20 22
36 34 34 37 38 37 38 39 39 39 40 42 43 43 43 43 42 43 43 44 45 45 46 46 45 45 45 44 42 39 36 33 31 30 30 31 31 31 30 30 30 29 29 28 28 27 27 26 25 23 22 23 25 24 22 22 23 21 20 20 19 19 20
37 35 35 37 37 37 38 39 38 38 40 41 42 43 43 43 43 43 44 45 46 47 48 48 48 48 47 47 45 42 40 37 35 33 32 32 33 34 34 34 33 33 32 30 29 29 28 28 28 27 25 25 27 27 25 24 26 24 22 22 21 21 21
36 35 36 37 37 38 41 42 41 41 41 42 43 43 44 44 44 45 45 46 47 48 48 48 49 49 48 49 48 45 43 41 38 36 36 35 35 35 35 36 35 35 35 33 32 31 31 32 32 30 28 28 29 28 26 25 24 24 23 22 22 23 23
36 38 40 41 41 43 45 45 46 45 45 45 45 44 44 44 44 44 44 44 44 45 46 46 47 47 47 47 47 47 46 44 42 39 38 37 37 37 36 36 35 36 36 35 34 33 34 35 35 32 30 29 29 29 29 26 22 22 23 24 25 26 26
41 43 45 45 45 46 46 46 46 45 45 45 44 43 42 41 40 40 40 40 40 41 42 43 43 44 45 45 45 45 45 46 45 43 41 39 38 38 38 37 36 36 36 36 36 36 37 37 35 33 33 32 30 30 31 30 25 22 23 25 27 29 29
44 44 44 44 44 44 44 44 44 43 42 42 42 41 40 39 38 38 37 38 38 39 40 41 42 43 44 45 45 45 45 45 46 45 45 43 42 40 39 38 37 36 36 36 37 39 39 37 35 34 34 34 33 31 32 32 30 27 26 27 29 30 30
44 44 43 42 42 41 42 42 42 41 40 40 40 39 39 38 38 38 38 39 39 40 41 41 42 44 44 45 46 46 46 46 46 46 46 45 45 45 43 41 40 38 38 37 38 40 40 37 35 34 33 33 34 34 32 32 32 31 30 30 31 31 32
43 42 42 42 42 42 42 41 41 40 39 39 39 39 39 39 38 38 39 39 40 40 41 42 43 44 45 46 46 47 48 48 48 47 47 46 46 46 47 46 44 42 40 40 41 42 41 38 37 37 35 34 35 35 33 33 33 32 32 31 32 33 34
42 42 42 42 42 42 42 41 41 41 40 40 40 39 39 39 39 39 39 39 40 40 40 41 42 42 43 45 46 47 48 49 49 48 48 47 47 46 47 48 47 45 44 43 43 43 42 40 39 39 37 35 35 35 35 34 33 32 32 32 32 34 35
43 43 42 42 41 41 41 41 41 41 41 40 40 40 40 40 40 40 40 40 40 40 40 41 41 41 41 42 44 45 46 47 48 48 48 47 47 47 47 47 48 47 45 44 44 43 42 41 41 40 39 38 37 37 36 36 34 32 33 33 33 34 34
43 42 42 41 40 40 40 40 40 40 40 40 40 39 39 39 40 40 40 41 41 41 41 40 40 40 40 40 42 43 43 44 45 46 46 46 45 45 45 45 47 47 46 45 44 43 42 42 41 41 41 40 39 39 38 38 36 34 34 34 34 35 34
43 42 41 40 39 39 39 40 40 40 40 40 39 39 39 39 40 40 41 41 40 40 39 39 38 38 38 38 39 41 42 42 43 44 44 44 43 42 42 42 43 44 44 44 43 42 41 41 42 42 42 41 41 40 40 40 38 36 34 34 34 35 34
43 41 40 39 39 39 39 39 40 40 40 39 39 39 39 39 40 41 41 40 39 38 37 37 37 37 37 37 37 38 39 40 41 41 42 42 42 42 41 40 41 42 42 42 41 40 40 40 40 41 41 41 41 40 40 41 39 37 36 35 34 35 35
42 41 39 38 38 38 38 39 40 39 39 38 38 38 39 40 40 40 39 38 37 36 36 37 38 38 38 38 37 37 38 39 39 40 39 40 41 41 40 40 41 41 41 40 39 39 39 38 39 40 40 40 40 40 40 40 39 39 38 38 37 36 35
41 40 39 38 38 38 38 38 39 38 37 37 37 38 39 39 39 38 37 37 37 37 38 39 40 40 40 39 39 38 39 39 40 40 39 38 39 39 39 39 40 41 41 41 40 38 37 37 38 38 38 38 39 39 39 38 38 39 41 40 38 37 35
41 40 39 38 37 38 38 38 38 37 37 37 37 38 38 37 35 35 36 36 37 39 40 42 42 41 40 40 39 38 38 39 40 40 39 38 38 38 38 38 39 40 40 41 41 39 37 38 39 37 36 36 38 40 39 38 37 39 41 40 39 38 37
41 39 38 37 37 37 37 37 37 36 36 37 36 36 35 34 33 34 35 36 38 40 41 41 41 40 39 39 39 38 38 39 39 38 38 38 38 37 37 37 38 39 40 40 40 39 38 38 38 38 36 36 37 40 41 39 38 39 41 41 40 39 38
40 39 38 37 36 36 36 36 35 35 35 35 34 33 32 32 33 34 35 37 38 39 38 38 37 36 36 36 37 37 36 37 37 36 36 37 37 37 37 37 37 38 39 40 40 40 38 38 38 38 37 37 37 39 41 40 39 39 41 41 41 40 40

ECMWFFLT1_500_spd_258.txt.gz
Wind_Speed
20 20 20 20 20 19 18 18 18 19 21 21 20 21 24 25 23 20 14 15 16 13 11 9 7 4 3 4 1 5 6 7 8 10 11 11 10 10 10 10 11 11 11 12 12 13 14 19 25 26 25 24 22 24 27 28 26 26 27 27 26 26 27
21 20 19 20 21 21 22 21 19 20 22 22 21 21 22 24 25 23 17 11 11 10 11 10 12 8 5 5 3 6 7 7 8 9 10 11 11 11 11 11 11 10 10 10 12 13 14 16 20 22 23 24 24 24 27 27 26 26 27 27 27 27 28
22 21 20 20 21 22 23 23 20 20 22 23 24 23 22 23 25 24 19 14 11 9 10 10 13 12 8 5 3 5 6 7 8 8 8 9 9 10 11 11 11 11 11 10 11 12 14 15 17 19 21 23 24 23 24 26 26 27 28 28 28 28 29
23 22 20 20 21 22 23 23 22 21 22 24 25 24 22 21 20 18 16 18 21 18 12 11 13 12 7 5 4 5 7 9 9 9 9 8 8 8 8 9 9 10 11 12 11 12 13 15 15 18 21 23 23 22 22 25 26 27 28 27 27 28 30
22 22 21 21 22 23 25 26 25 24 23 23 24 23 22 20 16 12 11 14 17 16 13 13 14 11 8 8 8 7 8 10 10 10 10 10 10 9 8 8 8 9 10 11 12 12 12 13 14 16 21 24 24 23 23 24 26 27 28 28 28 29 30
22 23 23 23 23 24 26 27 27 27 24 23 23 22 22 22 18 15 13 12 14 17 18 17 16 14 12 11 11 10 10 11 13 13 13 13 13 12 10 9 8 8 9 9 11 11 11 12 12 14 19 24 26 25 24 24 24 25 27 28 29 30 31
23 24 24 24 24 24 25 26 26 26 25 23 23 23 23 23 21 21 21 19 21 25 24 20 19 18 16 14 14 13 12 12 14 15 15 15 15 14 12 11 10 9 9 9 10 11 10 11 11 12 15 21 24 26 26 25 24 24 26 28 29 30 32
25 25 25 24 24 24 25 25 24 24 24 24 23 23 23 24 24 24 26 26 26 26 24 23 22 20 17 17 16 15 15 16 16 16 16 16 16 16 15 13 12 11 10 10 10 11 11 10 10 11 12 16 21 25 26 27 27 26 26 28 29 31 33
25 24 23 23 23 23 23 22 22 23 24 24 22 22 23 24 26 26 27 27 26 24 23 22 23 21 19 18 18 17 19 19 17 18 19 19 19 19 18 17 16 15 13 11 10 11 11 11 10 9 10 12 16 21 26 29 30 30 29 28 29 30 32
24 23 22 22 22 22 22 22 22 22 23 23 23 23 24 25 27 29 29 28 26 25 22 21 23 22 18 16 18 20 21 19 18 20 22 22 23 22 21 20 18 17 15 14 12 11 11 12 11 9 9 10 12 16 22 27 31 33 32 31 30 30 31
23 23 23 23 23 23 23 24 24 24 24 25 25 25 26 28 29 31 32 30 27 24 21 19 21 22 19 16 17 21 24 22 21 19 19 22 25 25 25 23 20 18 16 15 15 14 13 13 12 11 10 11 11 13 17 23 28 32 33 33 32 32 32
23 24 26 27 26 26 26 25 25 26 26 27 27 27 28 29 30 31 31 31 29 26 23 20 21 24 24 21 18 20 24 26 25 20 18 20 23 25 25 25 24 23 20 17 17 17 16 15 15 14 13 13 13 14 15 19 23 27 31 33 34 34 34
25 27 29 29 28 27 27 26 26 26 27 28 28 27 27 28 29 30 31 31 31 30 28 26 24 24 25 24 22 22 24 26 26 24 22 21 22 23 24 25 25 25 23 19 18 18 18 18 18 18 17 16 15 15 15 16 18 21 24 28 32 35 36
25 27 27 27 26 26 27 27 27 26 27 27 28 27 27 27 27 29 30 31 32 33 31 29 27 25 24 24 24 24 25 26 26 25 24 24 24 25 25 25 26 26 25 22 21 20 20 21 22 22 21 19 18 17 16 16 16 16 18 21 26 31 35
24 25 24 24 25 26 26 26 26 26 26 26 27 27 27 27 27 28 29 30 32 32 31 30 28 27 26 25 25 26 26 27 28 27 26 26 26 26 26 26 26 26 26 25 24 22 22 24 25 23 22 20 18 18 18 17 17 16 16 18 21 26 31
25 25 24 24 24 25 26 26 26 27 27 26 26 26 27 27 27 27 28 29 30 31 31 30 29 28 26 26 26 26 26 27 28 29 28 27 27 28 28 27 26 26 26 25 25 24 25 26 25 22 21 20 20 19 20 20 20 19 18 20 22 23 26
27 26 24 23 23 24 26 27 28 28 28 29 28 28 28 28 28 29 30 30 31 31 32 33 33 32 30 28 27 26 27 27 29 30 29 28 28 28 29 29 29 28 27 26 26 25 26 28 26 22 20 22 22 22 22 23 23 23 23 23 23 23 23
28 27 25 24 24 24 26 29 30 31 31 32 32 32 31 31 32 33 34 34 35 35 36 37 37 37 36 35 32 30 28 28 29 31 31 30 30 30 30 30 30 30 30 29 28 27 28 29 28 24 21 22 23 23 24 24 24 24 25 25 24 24 23
31 30 28 27 26 26 27 30 32 33 34 34 35 35 35 35 36 37 37 38 38 39 39 40 40 40 40 39 37 34 32 31 30 31 32 31 30 31 31 32 32 31 32 32 32 31 30 31 31 28 24 22 23 24 25 26 25 24 24 24 24 23 23
36 35 33 32 31 30 30 31 32 33 34 35 35 35 36 36 37 38 38 38 39 39 39 39 39 38 38 38 37 36 34 33 32 32 32 32 31 30 30 31 32 32 33 33 33 33 33 33 34 32 28 26 25 26 27 28 27 26 25 24 23 23 23
39 39 39 38 38 37 36 35 36 36 37 36 36 36 37 37 36 36 37 37 38 38 38 38 37 36 35 35 35 34 33 32 32 32 31 32 31 30 29 29 30 32 33 34 34 34 34 35 37 37 34 32 30 30 30 31 30 28 28 27 25 25 24
40 41 41 42 42 42 42 42 42 42 41 41 40 40 39 39 38 37 37 36 36 36 36 36 36 35 34 33 33 32 32 31 31 31 31 31 31 30 30 28 28 30 31 32 33 34 35 36 37 38 38 36 35 34 34 34 33 32 31 29 27 26 26
42 43 44 44 44 45 45 45 46 45 45 44 43 42 41 41 40 40 39 38 36 36 35 34 34 34 34 33 32 32 32 32 31 31 31 31 31 31 31 30 29 29 30 31 32 33 35 36 36 37 38 38 37 36 36 36 36 35 34 32 29 28 28
44 46 47 47 47 47 48 48 48 48 47 47 45 44 43 42 41 41 41 39 38 37 35 34 33 33 33 33 33 33 32 32 32 32 32 32 33 33 33 32 32 31 31 32 32 33 35 36 34 33 34 36 37 37 37 38 38 37 36 35 32 30 29
46 47 49 49 49 50 50 50 50 50 49 48 47 46 44 43 42 42 41 40 38 37 36 35 34 33 33 33 33 33 33 33 33 33 33 34 34 34 34 34 34 34 33 33 34 34 36 36 35 33 32 33 34 36 37 38 39 38 37 36 35 32 30
48 48 49 50 50 50 50 50 50 50 49 48 47 46 45 43 43 43 42 41 39 38 37 36 34 34 33 33 33 33 34 34 34 34 34 35 35 36 36 36 36 36 36 36 36 37 37 37 36 35 34 33 33 34 35 36 38 39 38 37 36 34 32
48 48 49 49 49 50 50 50 50 49 49 48 47 46 44 43 43 43 43 42 40 38 37 36 35 35 34 34 33 33 33 34 34 35 36 36 36 37 37 38 38 38 38 39 39 39 39 40 39 37 36 35 34 34 35 36 37 38 38 37 37 35 33
48 48 48 48 48 50 50 51 50 50 49 48 47 45 44 44 43 42 42 42 41 39 38 37 36 36 35 35 34 33 33 34 35 36 36 37 37 37 38 38 39 39 39 40 40 41 41 42 42 41 39 37 36 35 36 37 38 38 38 38 37 36 34
47 47 46 46 47 48 49 49 50 49 49 48 46 45 44 43 43 42 42 41 40 39 38 37 37 37 36 36 35 34 34 34 35 36 36 37 38 38 38 39 39 39 40 40 40 41 42 42 43 43 42 40 39 38 38 39 40 39 39 38 38 37 36
46 46 46 46 46 47 47 47 48 48 48 47 46 45 44 43 43 42 41 41 40 39 38 38 38 37 37 36 36 35 35 35 35 36 36 37 38 38 39 39 39 39 39 39 40 40 41 42 43 44 44 42 41 40 39 40 41 41 41 40 39 39 37
46 47 47 47 47 47 47 47 46 46 46 46 46 45 45 43 43 42 41 40 39 39 38 38 38 37 37 37 36 36 36 36 36 37 37 38 38 38 37 38 38 38 38 38 39 39 40 41 41 43 44 44 43 42 41 41 42 43 43 43 41 41 40
46 47 48 48 48 48 48 47 46 46 45 44 44 44 44 44 43 42 40 40 39 38 38 37 37 37 37 37 37 37 36 37 37 37 37 37 37 36 36 36 36 37 38 39 40 40 40 40 41 41 42 43 43 43 43 42 42 43 45 45 44 43 42
44 44 45 45 46 46 47 46 46 46 45 44 44 43 43 43 42 41 40 39 39 38 37 37 37 37 36 36 37 37 36 37 37 36 36 35 34 34 34 35 36 37 38 40 41 41 41 41 41 41 41 42 42 41 41 42 43 43 45 47 47 45 43
42 42 42 42 42 43 43 44 44 44 44 44 43 42 41 41 41 40 39 39 38 37 36 36 36 35 36 36 36 36 36 35 35 34 32 32 32 32 33 35 36 37 38 39 39 39 40 40 40 40 40 41 40 40 40 40 42 43 45 46 47 46 45
40 40 40 41 41 41 42 42 42 42 41 40 39 39 38 38 38 37 36 36 36 35 34 34 33 33 34 34 34 34 33 32 31 31 30 30 31 32 33 35 36 36 36 37 38 38 38 38 38 38 39 39 39 39 38 38 41 43 44 45 46 47 46
39 39 39 40 40 40 40 40 39 38 38 37 36 35 35 35 35 34 33 33 32 32 32 32 31 31 31 31 31 30 29 28 28 29 29 29 30 31 33 34 35 36 35 36 37 38 37 36 35 36 37 37 37 38 38 37 39 42 44 44 45 45 46
37 37 38 38 38 38 37 36 35 35 35 34 34 33 33 32 31 30 30 30 29 29 29 29 29 28 28 28 28 27 26 26 27 28 29 29 29 30 31 31 31 33 34 33 34 35 35 34 33 33 34 35 35 36 37 36 37 40 42 43 44 44 45
35 35 35 35 35 35 34 33 32 32 31 31 30 29 29 28 28 28 28 27 27 27 27 27 27 26 26 26 26 26 26 26 27 27 27 27 28 29 29 28 27 28 31 33 33 33 33 33 33 32 32 32 33 34 35 36 36 38 40 42 43 44 44

ECMWFFLT1_500_spd_264.txt.gz
Wind_Speed
19 20 22 23 23 23 23 23 24 24 25 25 26 26 25 25 24 23 22 21 20 18 16 15 13 10 9 11 13 15 17 18 17 17 17 17 18 17 18 18 19 19 20 21 20 19 19 19 18 18 16 15 15 15 16 17 19 21 22 25 27 28 28
20 21 22 23 24 25 25 25 25 25 26 26 27 27 26 25 25 24 22 21 21 19 16 14 12 10 9 11 14 17 18 18 19 19 20 21 21 21 21 21 20 20 20 21 21 19 19 20 20 18 17 16 15 15 15 15 18 20 22 24 26 27 28
21 22 23 24 25 26 26 25 24 24 25 25 25 26 26 25 24 23 22 21 21 20 18 15 14 14 15 16 18 20 19 19 19 21 22 23 23 23 23 23 23 22 21 20 20 20 19 19 19 18 17 16 14 14 15 15 17 20 22 25 26 26 27
22 23 24 24 25 25 24 23 22 22 23 23 24 24 24 23 22 21 21 21 21 21 20 18 16 18 20 22 22 22 20 20 21 22 24 24 24 23 24 25 25 24 23 22 21 20 19 18 18 19 18 16 14 13 14 16 18 20 23 25 26 26 24
23 23 23 23 23 23 23 23 22 22 21 22 22 23 24 23 22 21 21 21 22 22 21 21 20 20 22 23 24 23 22 21 23 25 27 27 26 25 24 25 25 24 24 23 22 21 20 18 17 18 18 17 15 14 13 15 17 21 23 24 25 25 24
24 23 23 22 22 22 22 23 24 23 22 21 22 23 24 25 25 24 23 22 22 22 22 23 23 24 24 24 25 25 25 24 25 27 29 29 28 26 24 23 24 24 24 23 23 22 21 20 18 17 18 18 17 16 14 14 16 19 22 24 24 25 25
23 23 22 22 22 23 24 25 26 25 24 23 24 24 25 26 26 26 25 24 23 23 23 24 25 27 27 27 27 27 27 27 27 28 29 29 27 25 23 23 23 23 23 23 23 24 24 23 22 20 20 19 18 17 16 15 15 17 21 24 26 26 27
22 23 23 25 25 26 27 27 27 27 26 26 26 27 27 26 26 26 26 25 24 23 24 25 27 28 28 28 28 28 28 27 26 26 26 26 26 26 25 24 24 23 24 24 24 24 25 25 25 24 23 22 21 20 18 17 17 16 18 21 23 26 28
22 24 26 27 28 28 28 28 27 27 26 26 27 27 27 26 25 25 26 26 25 24 24 24 26 27 28 28 28 28 28 26 25 25 25 26 27 28 28 27 27 27 26 26 26 26 25 25 25 26 26 26 24 23 21 19 18 17 16 16 18 22 25
24 26 28 28 28 28 28 28 27 26 25 25 26 26 27 26 26 26 25 25 26 26 25 25 25 26 27 28 29 29 28 27 26 27 28 28 29 30 30 30 30 30 30 30 29 28 27 25 25 26 27 27 27 26 24 22 20 19 17 15 16 18 20
26 28 29 29 28 28 29 28 27 26 25 25 25 25 26 27 27 26 25 25 25 25 26 26 25 25 26 28 29 29 29 29 28 29 30 30 30 30 31 32 32 31 31 31 31 31 30 28 27 26 27 28 28 28 27 25 23 21 20 18 16 16 18
28 29 30 30 30 30 30 29 27 27 26 25 25 25 26 26 27 26 26 26 25 25 25 26 26 26 27 29 30 30 30 30 30 30 31 31 31 31 31 32 33 33 33 33 33 33 33 31 29 28 28 29 30 29 28 27 26 24 22 21 19 17 17
30 31 32 32 32 32 31 29 28 27 26 25 25 25 25 26 26 26 27 27 28 28 27 27 27 28 29 30 31 32 32 32 31 31 32 32 33 33 33 33 33 34 34 34 35 35 35 34 32 31 30 30 30 30 29 28 28 26 25 23 22 21 19
33 33 34 34 34 33 32 30 29 28 28 26 26 26 26 26 27 27 28 29 30 31 31 31 31 31 31 32 33 34 36 36 36 35 34 34 34 35 35 36 36 35 35 35 36 36 37 36 35 34 33 31 31 31 31 30 29 28 27 25 23 23 22
36 36 35 34 34 33 33 32 31 31 31 29 28 28 28 29 29 30 30 32 33 34 35 35 35 35 35 35 34 34 36 38 39 39 38 37 36 37 37 38 38 38 38 37 36 37 38 38 38 37 36 34 33 32 32 32 31 29 28 26 25 24 23
36 36 34 33 33 33 33 33 33 34 34 34 33 32 32 32 32 32 33 34 36 37 38 39 39 39 39 38 37 35 35 36 38 39 40 39 38 38 38 38 38 38 39 38 38 38 38 39 39 38 38 36 35 34 33 32 32 30 29 27 27 25 24
36 34 32 32 32 32 33 33 35 36 37 37 37 37 36 36 35 35 36 37 38 40 41 42 42 43 43 42 40 38 37 37 37 38 39 40 40 39 38 38 38 38 38 38 37 37 38 39 40 40 39 38 37 35 34 33 33 32 31 29 28 27 26
34 32 31 32 33 33 34 35 36 37 38 38 38 39 39 39 39 39 39 40 41 43 44 45 46 46 46 46 44 43 41 40 39 39 40 41 42 42 41 40 39 39 38 38 37 36 36 37 40 40 40 40 38 37 36 35 35 34 33 32 30 29 28
32 32 33 34 34 34 35 36 37 37 38 38 38 39 40 41 41 42 43 44 44 43 44 45 46 47 48 48 47 46 45 43 43 42 42 43 43 44 43 42 41 41 40 39 38 36 35 35 37 39 40 40 40 39 37 37 37 36 35 35 34 32 30
32 33 34 35 35 35 36 37 38 38 38 39 40 42 42 43 44 45 45 44 43 43 43 43 44 45 46 47 47 46 45 45 44 44 44 44 44 44 44 43 42 41 41 40 39 38 36 34 34 36 38 38 39 39 38 38 38 37 36 36 37 36 34
34 35 36 37 37 39 41 42 42 42 43 43 44 44 44 44 44 45 45 44 44 44 44 43 43 44 44 45 45 45 45 44 44 44 44 44 44 44 44 43 43 42 41 40 39 38 37 35 33 34 35 36 36 36 36 37 37 37 37 37 38 38 37
38 39 39 40 42 43 45 45 45 46 46 46 46 46 45 45 45 45 45 45 45 45 45 44 45 45 44 45 45 45 45 44 44 43 43 43 43 43 44 43 43 43 42 41 40 39 38 36 33 33 33 34 35 34 34 34 35 35 36 37 37 38 39
41 42 43 43 43 44 45 46 46 46 46 47 47 47 47 47 46 46 45 46 46 46 46 45 45 45 45 46 46 46 46 45 44 43 43 42 42 43 43 44 43 43 42 42 41 40 39 38 35 34 33 34 34 34 33 33 34 35 35 35 36 37 38
44 44 45 45 45 45 46 46 46 46 47 47 47 47 47 47 46 46 46 46 46 46 46 46 46 46 46 47 47 47 47 47 46 45 44 43 43 42 43 43 43 43 42 42 41 41 40 39 38 36 35 34 34 35 34 34 35 36 36 35 36 35 36
45 46 46 46 46 46 46 46 46 46 46 46 46 46 47 46 46 46 46 46 46 46 46 46 47 47 47 47 48 48 48 49 48 47 46 45 44 43 43 43 43 43 43 42 42 41 41 40 39 38 37 36 35 35 35 36 36 37 38 38 37 37 36
46 46 47 46 46 46 46 46 46 46 46 46 46 46 46 46 46 46 46 45 45 45 45 45 46 47 47 47 48 48 49 49 49 49 48 47 46 44 44 44 43 43 43 43 42 42 41 41 40 39 38 38 37 36 36 37 37 38 39 40 40 39 38
46 46 46 46 46 46 46 46 46 46 46 46 45 45 45 45 45 44 44 44 43 44 44 45 46 46 47 47 47 48 49 49 49 49 49 48 47 46 45 44 44 43 43 43 43 43 42 42 41 40 39 39 39 38 38 38 38 38 39 41 41 41 41
45 45 45 45 45 46 46 47 47 46 46 46 45 45 44 43 43 42 42 42 42 43 44 45 45 45 45 46 46 46 47 47 48 49 48 48 47 46 45 45 44 44 43 43 43 43 43 42 42 41 40 39 39 40 39 39 39 39 39 40 42 42 42
45 45 45 45 46 46 46 46 46 45 45 45 44 44 43 42 41 41 41 41 42 43 43 44 44 44 44 44 44 44 44 44 45 46 46 46 45 45 45 44 44 44 43 43 42 42 42 43 42 42 41 40 40 40 40 40 40 40 40 40 41 42 43
45 45 45 45 45 45 44 44 44 44 44 43 43 43 42 41 40 40 40 41 41 42 43 43 42 42 42 42 42 42 42 41 41 41 42 42 42 42 42 42 42 43 43 43 42 42 42 42 42 42 41 40 39 40 41 41 41 41 41 41 42 42 43
44 44 44 43 43 42 42 42 42 42 42 42 41 41 40 39 39 39 39 40 40 41 41 40 40 40 39 39 39 39 39 38 38 37 37 37 37 37 38 39 40 41 41 42 42 42 41 41 41 41 41 40 40 40 41 42 42 43 43 43 43 43 43
43 43 42 41 41 40 40 40 40 40 40 40 39 39 38 38 38 38 38 38 39 39 38 38 37 37 37 36 36 36 36 35 34 34 34 34 34 34 35 35 36 37 39 39 40 40 40 40 40 40 40 40 40 40 40 41 42 43 44 44 44 44 44
42 41 41 40 39 39 39 39 38 38 38 38 37 37 37 37 36 36 36 36 36 36 36 35 34 34 34 33 33 33 33 32 32 31 31 31 32 32 33 33 33 34 35 36 37 38 38 38 38 38 38 39 39 39 39 39 40 42 43 44 44 44 44
40 40 39 38 38 38 37 37 37 36 36 36 36 36 35 34 33 33 33 33 33 33 32 32 31 31 31 31 31 31 31 30 30 29 29 30 30 30 31 31 31 31 32 33 34 35 35 36 36 36 37 37 38 38 38 38 39 40 41 43 44 44 45
38 38 37 37 37 36 36 35 35 35 35 34 34 33 32 31 31 31 31 30 30 30 29 29 29 29 29 29 29 29 29 28 28 28 28 28 28 28 29 29 30 30 30 30 32 32 33 33 34 34 35 36 37 37 37 36 37 38 40 41 43 44 44
37 37 37 36 36 35 35 35 34 34 33 31 30 29 29 29 29 29 29 28 28 28 28 28 27 27 28 28 28 28 27 27 27 26 26 26 25 25 26 27 27 27 28 28 29 30 30 31 31 32 32 33 34 35 35 35 35 36 38 39 41 42 43
36 36 35 34 34 34 34 33 32 31 29 28 27 27 27 27 28 28 28 27 27 27 27 27 27 27 27 27 26 26 26 25 25 25 25 24 23 23 23 24 24 25 24 25 25 26 27 28 29 29 29 30 31 33 34 34 34 34 35 36 38 40 42
34 33 32 32 32 32 31 30 29 29 28 27 27 26 26 27 27 27 27 26 26 26 27 27 26 26 26 26 25 25 24 24 23 23 22 22 22 22 22 22 22 23 23 24 24 24 25 26 28 29 29 29 30 30 31 32 33 33 34 35 37 39 42